Soerstokken current weather conditions

sailwx.info

Wind from 290 at 14 knots

Air temperature 5.0° C
Visibility: greater than 5.4 NM
Dewpoint 4.0° C

Last reported at 2017-Feb-22 17:50 UTC.
Time now 2017-Feb-23 07:09 UTC

Location: N 59°48' E 005°20'.
View on Google Maps.

See reports from other nearby stations

  
Tides and Currents Weather Stations Pressure Air Temp Water Temp Dewpoint Dewpoint Depression Visibility Wind Speed Wind Dir Waves Ship Positions
date/time (UTC)wind fromknots sea level pressurealtimeterstation pressurevisibilityair tempwater tempwave heightnotes
2017-Feb-22 17:50 290 14 5.4 5.0
2017-Feb-22 17:20 290 13 gusting 24 5.4 5.0
2017-Feb-22 16:50 290 15 5.4 5.0
2017-Feb-22 16:20 290 13 gusting 26 5.4 5.0 Showers in the vicinity.
2017-Feb-22 15:20 290 13 5.4 5.0 Showers in the vicinity.
2017-Feb-22 14:50 270 15 gusting 32 5.4 5.0 Showers in the vicinity.
2017-Feb-22 14:20 260 13 5.4 5.0 Showers in the vicinity.
2017-Feb-22 13:50 260 12 5.4 4.0 Showers in the vicinity.
2017-Feb-22 13:20 270 14 gusting 25 5.4 4.0 Showers in the vicinity.
2017-Feb-21 17:50 170 9 5.4 4.0 Rain.
2017-Feb-21 17:20 160 9 5.4 5.0
2017-Feb-21 16:50 160 9 5.4 5.0
2017-Feb-21 16:20 150 9 5.4 5.0
2017-Feb-21 15:50 170 7 5.4 5.0
2017-Feb-21 15:20 170 6 5.4 5.0 Light rain.
2017-Feb-21 14:50 170 5 5.4 5.0
2017-Feb-21 14:20 190 2 5.4 5.0
2017-Feb-21 13:20 270 2 5.4 6.0
2017-Feb-21 12:50 270 6 5.4 6.0
2017-Feb-21 12:20 300 8 5.4 5.0
2017-Feb-21 11:20 330 12 5.4 5.0
2017-Feb-21 10:20 320 15 5.4 5.0
2017-Feb-21 09:20 330 18 gusting 27 5.4 5.0
2017-Feb-21 08:50 330 20 gusting 31 5.4 4.0 Light rain.
2017-Feb-21 08:20 320 14 gusting 25 5.4 5.0 Rain showers.
2017-Feb-21 07:20 320 20 gusting 29 5.4 5.0 Showers in the vicinity.